[[[{"header":{"parameterUnit":"kt","parameterCategory":2,"dx":1,"dy":1,"la1":30.253999710083008,"la2":30.299108505249023,"lo1":-89.0895004272461,"lo2":-89.04439544677734,"nx":28,"ny":28,"refTime":"2022-10-31T21:00:00:Z","depth":"0","parameterNumber":2,"parameterNumberName":"U-component_of_CURRENTS"},"data":[0.621,0.6289,0.6291,0.6316,0.6362,0.6326,0.6319,0.6261,0.6271,0.6072,0.5887,0.5877,0.5707,0.5376,0.4924,0.481,0.4484,0.4242,0.4428,0.4989,0.5083,0.5172,0.4931,0.4286,0.4286,0.3144,0.3135,0.3129,0.618,0.6229,0.6319,0.6423,0.6474,0.6546,0.6644,0.6596,0.6653,0.6789,0.6902,0.6712,0.6527,0.6411,0.6017,0.5772,0.5507,0.5608,0.5105,0.506,0.5979,0.5746,0.5264,0.5265,0.5265,0.5265,0.5265,0.5266,0.6131,0.6201,0.6319,0.6409,0.6526,0.661,0.6632,0.6772,0.6908,0.7022,0.7293,0.7353,0.7301,0.74,0.7374,0.6907,0.7069,0.6638,0.6663,0.6479,0.6129,0.7075,0.7032,0.7037,0.7043,0.7047,0.7051,0,0.6105,0.6165,0.6269,0.6391,0.6493,0.6613,0.6746,0.6826,0.7036,0.7185,0.7415,0.757,0.7814,0.7743,0.7872,0.7886,0.7496,0.7795,0.7589,0.667,0.6269,0.6103,0.7199,0.7227,0.7234,0.724,0.7243,0.7246,0.6094,0.6134,0.6308,0.6376,0.6451,0.658,0.6682,0.685,0.6964,0.7266,0.736,0.764,0.7822,0.8159,0.8169,0.8312,0.8089,0.7957,0.7751,0.7431,0.7396,0.715,0.6998,0.7324,0.7314,0.7306,0.7299,0,0.612,0.6178,0.6277,0.6435,0.6482,0.6568,0.6758,0.6863,0.7025,0.7223,0.729,0.7548,0.7808,0.7979,0.8254,0.8239,0.8139,0.8398,0.7884,0.7827,0.7476,0.7435,0.7207,0.7028,0.8395,0.8393,0.8392,0,0.6187,0.6229,0.6353,0.64,0.6506,0.6614,0.6749,0.6876,0.7052,0.7193,0.7332,0.7477,0.7681,0.7876,0.798,0.8139,0.826,0.8125,0.8134,0.7718,0.7669,0.745,0.7387,0.8305,0.8303,0.8302,0.83,0,0.6235,0.633,0.6384,0.6428,0.6595,0.6657,0.6749,0.6926,0.703,0.7215,0.731,0.7479,0.7592,0.7748,0.7896,0.7841,0.8182,0.8118,0.8069,0.8059,0.771,0.766,0.7543,0.8297,0.8297,0.8296,0.8296,0,0.6307,0.6362,0.6431,0.6552,0.6582,0.6654,0.6821,0.6918,0.7092,0.7163,0.7269,0.7327,0.7495,0.7446,0.7719,0.7633,0.7715,0.7789,0.78,0.7676,0.7601,0.7387,0.7447,0.7179,0.7869,0.7865,0.7862,0,0.6362,0.6414,0.6448,0.6532,0.6579,0.6677,0.678,0.6889,0.6976,0.7091,0.7155,0.7247,0.7229,0.7268,0.7371,0.7497,0.7593,0.7446,0.7669,0.7676,0.756,0.7699,0.724,0.7408,0.7815,0.7819,0.7823,0,0.6374,0.6434,0.6433,0.6473,0.657,0.6617,0.6729,0.683,0.6902,0.6978,0.7071,0.7158,0.7176,0.7207,0.7224,0.7321,0.7511,0.7323,0.7327,0.7427,0.7779,0.7648,0.7668,0.7532,0.7537,0.7542,0.7785,0,0.6447,0.6446,0.6456,0.6499,0.6556,0.6591,0.6675,0.6746,0.6786,0.6835,0.6937,0.7003,0.7075,0.7072,0.7095,0.7219,0.722,0.72,0.7179,0.7265,0.7353,0.7383,0.701,0.7009,0.7008,0.7007,0,0,0.6463,0.6421,0.643,0.6462,0.6496,0.654,0.6581,0.6643,0.673,0.6773,0.6765,0.6896,0.6925,0.7023,0.705,0.7052,0.7116,0.7025,0.7195,0.7216,0.7236,0.7326,0.7355,0.7004,0.7004,0.7004,0.7003,0,0.6453,0.6424,0.6414,0.6454,0.6493,0.6532,0.6543,0.66,0.6637,0.6731,0.6755,0.6819,0.6886,0.6932,0.6956,0.7033,0.7042,0.7003,0.7061,0.7181,0.7203,0.7223,0.7316,0.7343,0.7,0.7001,0.7001,0,0.6464,0.645,0.643,0.6437,0.6467,0.6518,0.6508,0.6546,0.6598,0.6622,0.6719,0.6751,0.6788,0.6861,0.6888,0.6864,0.6999,0.6909,0.6915,0.6935,0.7058,0.7083,0.7104,0.6834,0.6833,0.6833,0,0,0.6475,0.6444,0.646,0.6437,0.6457,0.6493,0.6517,0.6536,0.6593,0.6622,0.6668,0.671,0.6762,0.679,0.6834,0.6896,0.6946,0.6891,0.6899,0.6906,0.6929,0.7053,0.7075,0.6832,0.6832,0.6831,0,0,0.6488,0.6463,0.6454,0.6422,0.6461,0.6503,0.6528,0.6541,0.6614,0.6618,0.6651,0.6666,0.6742,0.6743,0.6728,0.6792,0.6755,0.6761,0.6802,0.6812,0.682,0.6839,0.6683,0,0,0,0,0,0.6484,0.6461,0.6452,0.6447,0.645,0.6498,0.6509,0.6536,0.653,0.6559,0.6624,0.6593,0.6741,0.673,0.6741,0.6746,0.6815,0.6818,0.6821,0.6888,0.6899,0.6907,0,0,0,0,0,0,0.6482,0.6472,0.6454,0.648,0.6483,0.6497,0.6489,0.6499,0.6528,0.653,0.6587,0.6594,0.6616,0.6722,0.6733,0.6736,0.6679,0.6816,0.6818,0.6821,0.6892,0.69,0.6907,0,0,0,0,0,0.6481,0.6473,0.645,0.6484,0.6486,0.6522,0.6489,0.6497,0.6528,0.6565,0.6573,0.6545,0.6616,0.6627,0.6728,0.6731,0.6671,0.6675,0.6818,0.682,0.6821,0.6896,0,0,0,0,0,0,0.648,0.6508,0.6454,0.6459,0.6473,0.6525,0.6525,0.6495,0.6562,0.657,0.6523,0.6524,0.6616,0.6625,0.6634,0.6729,0.6665,0.6669,0.6672,0.6819,0.6821,0.6822,0,0,0,0,0,0,0.6512,0.6511,0.6457,0.6439,0.6443,0.6527,0.6527,0.6572,0.6562,0.6518,0.652,0.6522,0.6596,0.6624,0.663,0.6702,0.666,0.6664,0.6667,0.6669,0.682,0.6822,0,0,0,0,0,0,0.6514,0.6513,0.6439,0.6441,0.6445,0.6511,0.657,0.6569,0.6549,0.6515,0.6546,0.6545,0.6594,0.6602,0.6628,0.6697,0.6701,0.666,0.6663,0.6665,0.6666,0,0,0,0,0,0,0,0.6516,0.6493,0.6415,0.6443,0.6446,0.6506,0.6508,0.651,0.6548,0.6548,0.6547,0.6546,0.6637,0.6641,0.6646,0.6692,0,0,0.666,0.6662,0,0,0,0,0,0,0,0,0.6496,0.6493,0.6416,0.6416,0.6417,0.6506,0.6508,0.651,0.6548,0.6548,0.6547,0.6546,0.6638,0.6642,0.6645,0,0,0,0,0,0,0,0,0,0,0,0,0,0,0,0.6416,0.6416,0,0.6506,0.6508,0.6509,0.6548,0.6548,0.6547,0.6546,0.6639,0.6642,0.6645,0,0,0,0,0,0,0,0,0,0,0,0,0,0,0,0,0,0,0,0,0,0,0,0,0,0,0,0,0,0,0,0,0,0,0,0,0,0,0,0,0,0,0,0,0,0,0,0,0,0,0,0,0,0,0,0,0,0,0,0,0,0,0,0,0,0,0,0,0]}],[{"header":{"parameterUnit":"kt","parameterCategory":2,"dx":1,"dy":1,"la1":30.253999710083008,"la2":30.299108505249023,"lo1":-89.0895004272461,"lo2":-89.04439544677734,"nx":28,"ny":28,"refTime":"2022-10-31T21:00:00:Z","depth":"0","parameterNumber":3,"parameterNumberName":"V-component_of_CURRENTS"},"data":[0.0787,0.0869,0.0906,0.117,0.131,0.1556,0.1721,0.2051,0.2415,0.3026,0.3404,0.3653,0.3215,0.1528,0.0388,0.0087,-0.03,-0.0326,-0.0467,-0.024,-0.0212,-0.0185,-0.0339,-0.0467,-0.0469,-0.0978,-0.0984,-0.0989,0.0742,0.0788,0.0902,0.1056,0.1223,0.1274,0.1533,0.1724,0.2101,0.2561,0.2912,0.3082,0.2663,0.2136,0.1216,0.0713,0.0466,0.0403,0.0171,0.0111,0.0642,0.0524,0.0577,0.0577,0.0577,0.0578,0.0578,0.0578,0.0665,0.0715,0.0783,0.091,0.1043,0.1224,0.1368,0.1568,0.1837,0.2215,0.2359,0.2758,0.2477,0.2221,0.1908,0.1191,0.1191,0.0873,0.0724,0.0664,0.0468,0.1021,0.1256,0.1256,0.1257,0.1257,0.1257,0,0.0588,0.0609,0.0661,0.0791,0.0899,0.1024,0.1162,0.1289,0.1414,0.1627,0.1952,0.2139,0.2194,0.2129,0.1912,0.1705,0.1043,0.1263,0.0995,0.0493,0.0353,0.0226,0.0737,0.1024,0.1023,0.1023,0.1022,0.1022,0.0494,0.0536,0.0612,0.0679,0.0708,0.0815,0.0901,0.0953,0.1063,0.1301,0.1426,0.1617,0.1795,0.1856,0.1592,0.1487,0.1156,0.1251,0.0968,0.0683,0.049,0.0378,0.0275,0.1013,0.1014,0.1015,0.1016,0,0.0446,0.0449,0.0519,0.056,0.0593,0.0668,0.0768,0.0851,0.09,0.1077,0.1121,0.118,0.1335,0.1226,0.126,0.1061,0.094,0.1034,0.0966,0.0947,0.0616,0.0446,0.0561,0.0463,0.1093,0.1095,0.1097,0,0.0364,0.041,0.0425,0.0453,0.0551,0.0519,0.0628,0.0628,0.069,0.0812,0.0714,0.0847,0.0735,0.0824,0.0706,0.0764,0.0833,0.0594,0.059,0.0512,0.0502,0.024,0.0054,0.0602,0.06,0.0598,0.0596,0,0.0289,0.0314,0.0366,0.0368,0.037,0.0405,0.0415,0.0411,0.0453,0.049,0.0565,0.054,0.0599,0.0581,0.0517,0.0403,0.0667,0.0491,0.0485,0.0486,0.042,0.0405,0.0472,0.0593,0.0592,0.0591,0.059,0,0.0199,0.0218,0.0265,0.029,0.0297,0.0306,0.034,0.0328,0.0324,0.0313,0.0297,0.0227,0.0252,0.0112,0.0201,0.0125,0.011,0.0092,0.0101,0.0031,-0.0092,0.0109,0.039,0.0126,0.0155,0.0151,0.0148,0,0.0136,0.0172,0.0143,0.0175,0.0191,0.0136,0.0134,0.0104,0.007,0.0091,-0.0009,-0.0035,-0.0198,-0.0206,-0.018,-0.0203,-0.0127,-0.0286,-0.0164,-0.016,-0.0151,0.012,0.0067,0.0323,0.0096,0.0102,0.0106,0,0.0084,0.0067,0.0073,0.0088,0.0036,0.0031,0.0007,-0.0017,0.0014,-0.0091,-0.0043,-0.0236,-0.0266,-0.0365,-0.0486,-0.0441,-0.0217,-0.0504,-0.0506,-0.0367,0.0039,0.0046,0.0082,-0.0237,-0.0231,-0.0227,0.0065,0,0.0014,0.0022,0.003,0.0013,-0.0011,-0.0013,-0.0075,-0.0104,-0.015,-0.0199,-0.0256,-0.0423,-0.0535,-0.0597,-0.0717,-0.0646,-0.0651,-0.0736,-0.0835,-0.0674,-0.0573,-0.054,-0.1003,-0.1007,-0.1011,-0.1015,0,0,-0.0032,-0.0014,-0.0058,-0.0056,-0.0064,-0.0137,-0.0129,-0.019,-0.0306,-0.0319,-0.0377,-0.0587,-0.0764,-0.0844,-0.0817,-0.0921,-0.0862,-0.0995,-0.0779,-0.0753,-0.0728,-0.0622,-0.0585,-0.1022,-0.1023,-0.1024,-0.1026,0,-0.0053,-0.0064,-0.005,-0.0081,-0.0118,-0.0168,-0.0162,-0.0241,-0.0284,-0.0374,-0.0487,-0.057,-0.083,-0.0926,-0.1019,-0.0968,-0.1053,-0.1029,-0.0905,-0.0816,-0.0784,-0.0756,-0.0644,-0.0608,-0.1035,-0.1035,-0.1034,0,-0.0092,-0.0106,-0.0105,-0.0139,-0.0183,-0.0204,-0.0263,-0.0293,-0.0316,-0.0516,-0.0609,-0.0729,-0.093,-0.1041,-0.1112,-0.1178,-0.1187,-0.1297,-0.1278,-0.1277,-0.1193,-0.1156,-0.1124,-0.1532,-0.1533,-0.1534,0,0,-0.011,-0.0105,-0.0154,-0.0147,-0.0161,-0.0239,-0.0269,-0.0315,-0.0415,-0.0465,-0.0627,-0.0788,-0.0922,-0.1029,-0.1181,-0.1314,-0.131,-0.1348,-0.1325,-0.1305,-0.1292,-0.1203,-0.1169,-0.1536,-0.1537,-0.1537,0,0,-0.0131,-0.0162,-0.0179,-0.0171,-0.0219,-0.0312,-0.033,-0.0372,-0.049,-0.0503,-0.0713,-0.0773,-0.0896,-0.105,-0.1055,-0.1235,-0.1339,-0.1345,-0.1135,-0.1109,-0.1087,-0.1027,-0.1252,0,0,0,0,0,-0.0168,-0.0149,-0.0162,-0.0166,-0.024,-0.0293,-0.0312,-0.0389,-0.0408,-0.043,-0.0563,-0.072,-0.107,-0.108,-0.1145,-0.1155,-0.1573,-0.1566,-0.156,-0.1321,-0.1291,-0.1266,0,0,0,0,0,0,-0.017,-0.0173,-0.0164,-0.0242,-0.0259,-0.0295,-0.0353,-0.0377,-0.0409,-0.042,-0.0679,-0.0729,-0.0889,-0.1065,-0.1119,-0.1123,-0.1235,-0.157,-0.1565,-0.156,-0.1311,-0.1286,-0.1265,0,0,0,0,0,-0.0171,-0.0174,-0.0256,-0.0246,-0.0261,-0.0354,-0.0354,-0.0374,-0.0416,-0.0647,-0.0693,-0.0465,-0.0884,-0.0944,-0.1098,-0.1092,-0.1199,-0.1218,-0.1567,-0.1562,-0.1558,-0.1299,0,0,0,0,0,0,-0.0172,-0.0231,-0.0263,-0.0273,-0.0242,-0.0356,-0.0372,-0.0371,-0.0649,-0.0685,-0.0447,-0.0453,-0.0882,-0.0929,-0.0974,-0.1067,-0.117,-0.119,-0.1202,-0.1563,-0.156,-0.1557,0,0,0,0,0,0,-0.0229,-0.0238,-0.0269,-0.0259,-0.0269,-0.0358,-0.0371,-0.0571,-0.0659,-0.0441,-0.0449,-0.0448,-0.0868,-0.0918,-0.0954,-0.1259,-0.1147,-0.1166,-0.1179,-0.1187,-0.1561,-0.1558,0,0,0,0,0,0,-0.0236,-0.0244,-0.0258,-0.0266,-0.0275,-0.0402,-0.0548,-0.0661,-0.0508,-0.0435,-0.0509,-0.051,-0.0859,-0.0895,-0.0939,-0.1228,-0.1251,-0.1148,-0.1161,-0.117,-0.1176,0,0,0,0,0,0,0,-0.0241,-0.0151,-0.0188,-0.0271,-0.028,-0.0359,-0.0364,-0.0368,-0.0508,-0.0509,-0.0509,-0.051,-0.104,-0.1061,-0.1081,-0.1202,0,0,-0.1146,-0.1155,0,0,0,0,0,0,0,0,-0.0151,-0.0151,-0.0188,-0.0189,-0.019,-0.036,-0.0364,-0.0367,-0.0508,-0.0509,-0.0509,-0.0509,-0.1046,-0.1062,-0.1079,0,0,0,0,0,0,0,0,0,0,0,0,0,0,0,-0.0188,-0.0189,0,-0.0361,-0.0364,-0.0367,-0.0508,-0.0509,-0.0509,-0.0509,-0.105,-0.1064,-0.1078,0,0,0,0,0,0,0,0,0,0,0,0,0,0,0,0,0,0,0,0,0,0,0,0,0,0,0,0,0,0,0,0,0,0,0,0,0,0,0,0,0,0,0,0,0,0,0,0,0,0,0,0,0,0,0,0,0,0,0,0,0,0,0,0,0,0,0,0,0]}]],[[{"header":{"parameterUnit":"kt","parameterCategory":2,"dx":1,"dy":1,"la1":30.253999710083008,"la2":30.299108505249023,"lo1":-89.0895004272461,"lo2":-89.04439544677734,"nx":28,"ny":28,"refTime":"2022-10-31T21:00:00:Z","depth":"2","parameterNumber":2,"parameterNumberName":"U-component_of_CURRENTS"},"data":[0.3588,0.3621,0.3627,0.3636,0.3665,0.3537,0.3429,0.3352,0.335,0.3263,0.3238,0.3432,0.3585,0.3012,0.2925,0.2707,0.3019,0.2589,0.3789,0.385,0.3927,0.4151,0.3773,0,0,0,0,0,0.3582,0.3624,0.3729,0.3803,0.382,0.3925,0.3907,0.3808,0.3814,0.4025,0.4105,0.3757,0.3606,0.3746,0.3487,0.3432,0.3417,0.3315,0.3287,0.3381,0.3464,0.3151,0.2547,0.2543,0.2538,0.2534,0,0,0.3665,0.3668,0.3788,0.3851,0.399,0.3997,0.3938,0.4112,0.4211,0.4381,0.4623,0.4647,0.4723,0.4516,0.4407,0.4352,0.4698,0.4495,0.4528,0.4572,0.4316,0.417,0.4019,0.4024,0.4029,0.4034,0.4038,0,0.3661,0.3749,0.3811,0.3879,0.4,0.4079,0.4224,0.4283,0.4576,0.4739,0.4946,0.5053,0.5286,0.5099,0.5164,0.513,0.5243,0.5093,0.5876,0.4747,0.4615,0.4644,0.4668,0.4586,0.4596,0.4602,0.4607,0.4611,0.3738,0.3753,0.3861,0.3943,0.4009,0.4133,0.4249,0.4444,0.4555,0.4944,0.5036,0.5329,0.5458,0.5678,0.5643,0.5722,0.5887,0.5314,0.5068,0.5632,0.5664,0.5652,0.564,0.471,0.4698,0.4687,0.4679,0,0.3819,0.3897,0.3912,0.402,0.4069,0.4134,0.4344,0.4455,0.4687,0.4926,0.5012,0.5288,0.5517,0.5702,0.5931,0.5865,0.594,0.5911,0.5442,0.5412,0.5688,0.5668,0.5792,0.5785,0.5779,0.5773,0.5769,0,0.3942,0.3933,0.4013,0.4014,0.4108,0.4192,0.4355,0.4472,0.4697,0.4863,0.5035,0.5213,0.5446,0.5626,0.5689,0.5758,0.5947,0.5663,0.5704,0.5322,0.5267,0.579,0.5766,0.5966,0.5964,0.5961,0.5959,0,0.3972,0.4024,0.4043,0.4062,0.4174,0.4234,0.4318,0.4484,0.4587,0.4825,0.495,0.5185,0.5391,0.5487,0.5621,0.5568,0.5842,0.583,0.5677,0.5665,0.5291,0.5234,0.5957,0.5956,0.5955,0.5955,0.5954,0,0.4062,0.4082,0.4101,0.4168,0.4192,0.424,0.4377,0.4459,0.4649,0.4742,0.4911,0.5043,0.5235,0.5206,0.5466,0.5378,0.5465,0.5523,0.5538,0.5234,0.5251,0.5101,0.5117,0.5737,0.5734,0.5731,0.5728,0,0.4089,0.4113,0.4161,0.4175,0.4177,0.4265,0.4352,0.4418,0.4501,0.4638,0.4785,0.4962,0.497,0.5108,0.5161,0.5322,0.5386,0.525,0.5474,0.5481,0.5244,0.5329,0.4886,0.5096,0.5691,0.5695,0.5697,0,0.4089,0.415,0.4152,0.4165,0.4251,0.4266,0.4331,0.4401,0.4472,0.4552,0.4673,0.4846,0.4951,0.5013,0.513,0.516,0.5335,0.5144,0.5147,0.5283,0.5583,0.5315,0.5316,0.5351,0.5354,0.5356,0.5668,0,0.4141,0.414,0.4163,0.4211,0.4242,0.4284,0.433,0.4381,0.442,0.4447,0.4633,0.479,0.4929,0.4966,0.4999,0.5132,0.5145,0.5136,0.5069,0.5142,0.5271,0.5295,0.4981,0.4979,0.4977,0.4975,0,0,0.4145,0.4137,0.4176,0.421,0.4237,0.4292,0.4306,0.4337,0.4414,0.4454,0.4477,0.4701,0.4788,0.4962,0.4983,0.503,0.5079,0.4935,0.5092,0.5105,0.5117,0.5243,0.5268,0.4972,0.4972,0.4971,0.497,0,0.4159,0.4156,0.4162,0.4198,0.4263,0.4277,0.4299,0.4328,0.4358,0.444,0.4523,0.4667,0.4753,0.4849,0.4901,0.5002,0.5011,0.5001,0.4968,0.5075,0.5091,0.5104,0.5232,0.5256,0.4966,0.4966,0.4967,0,0.4171,0.4196,0.4179,0.4206,0.423,0.4248,0.4256,0.4297,0.4315,0.4387,0.4455,0.4568,0.4647,0.4762,0.4816,0.4765,0.4929,0.4854,0.4862,0.4806,0.4912,0.4929,0.4945,0.475,0.475,0.4749,0,0,0.4201,0.4201,0.4216,0.4205,0.4227,0.4241,0.4257,0.4273,0.4336,0.4365,0.4427,0.4496,0.4608,0.4653,0.474,0.4812,0.4836,0.4832,0.4842,0.4851,0.4802,0.4907,0.4923,0.4748,0.4748,0.4748,0,0,0.4212,0.4216,0.4213,0.4186,0.4228,0.4235,0.4259,0.426,0.4335,0.4353,0.4414,0.4445,0.46,0.4588,0.4572,0.4693,0.4642,0.4649,0.4717,0.473,0.474,0.4668,0.4553,0,0,0,0,0,0.4237,0.4214,0.4211,0.4208,0.4184,0.4224,0.4225,0.4248,0.424,0.4269,0.4359,0.4357,0.4588,0.4576,0.4596,0.4638,0.4734,0.4737,0.4739,0.4848,0.4861,0.4872,0,0,0,0,0,0,0.4236,0.4228,0.4213,0.4211,0.4208,0.4221,0.4206,0.421,0.424,0.4246,0.4336,0.4358,0.4399,0.4566,0.4584,0.4623,0.4547,0.4735,0.4737,0.4739,0.4852,0.4863,0.4872,0,0,0,0,0,0.4235,0.4229,0.418,0.4212,0.4209,0.4238,0.4207,0.4211,0.4232,0.431,0.4329,0.426,0.4395,0.442,0.4577,0.4614,0.4534,0.4541,0.4737,0.4738,0.474,0.4858,0,0,0,0,0,0,0.4235,0.4219,0.4181,0.4182,0.4236,0.4241,0.4239,0.4212,0.4297,0.4313,0.4237,0.4241,0.4393,0.4412,0.4431,0.461,0.4524,0.4531,0.4535,0.4738,0.4739,0.474,0,0,0,0,0,0,0.4224,0.4219,0.4181,0.4209,0.4214,0.4244,0.4242,0.4307,0.4302,0.4218,0.4223,0.4239,0.4424,0.4407,0.4421,0.4515,0.4516,0.4523,0.4527,0.453,0.4739,0.474,0,0,0,0,0,0,0.4223,0.4218,0.4208,0.4211,0.4215,0.4225,0.4307,0.431,0.4232,0.4217,0.4238,0.4241,0.4422,0.4434,0.4414,0.4501,0.4512,0.4516,0.4521,0.4524,0.4526,0,0,0,0,0,0,0,0.4222,0.4236,0.4185,0.4213,0.4217,0.4199,0.4198,0.4198,0.4233,0.4235,0.4238,0.424,0.4478,0.4485,0.4493,0.449,0,0,0.4516,0.4519,0,0,0,0,0,0,0,0,0.424,0.4237,0.4185,0.4186,0.4187,0.4199,0.4198,0.4198,0.4233,0.4235,0.4237,0.4239,0.448,0.4486,0.4492,0,0,0,0,0,0,0,0,0,0,0,0,0,0,0,0.4185,0.4186,0,0.4199,0.4199,0.4198,0.4234,0.4235,0.4237,0.4238,0.4482,0.4487,0.4492,0,0,0,0,0,0,0,0,0,0,0,0,0,0,0,0,0,0,0,0,0,0,0,0,0,0,0,0,0,0,0,0,0,0,0,0,0,0,0,0,0,0,0,0,0,0,0,0,0,0,0,0,0,0,0,0,0,0,0,0,0,0,0,0,0,0,0,0,0]}],[{"header":{"parameterUnit":"kt","parameterCategory":2,"dx":1,"dy":1,"la1":30.253999710083008,"la2":30.299108505249023,"lo1":-89.0895004272461,"lo2":-89.04439544677734,"nx":28,"ny":28,"refTime":"2022-10-31T21:00:00:Z","depth":"2","parameterNumber":3,"parameterNumberName":"V-component_of_CURRENTS"},"data":[0.113,0.1253,0.1302,0.1676,0.1882,0.2241,0.2459,0.2668,0.2759,0.2783,0.2666,0.2488,0.189,0.1342,0.0767,0.0368,0.0308,0.0268,0.0357,0.0536,0.0554,0.0173,0.0182,0,0,0,0,0,0.1074,0.114,0.1274,0.1514,0.1752,0.1842,0.2188,0.2374,0.2661,0.2713,0.2768,0.2276,0.1807,0.1299,0.0547,0.0098,0.0075,-0.0041,0.0044,0.0057,0.0069,0.0065,-0.0058,-0.0059,-0.006,-0.006,0,0,0.0969,0.1032,0.1138,0.1318,0.1505,0.1785,0.199,0.2187,0.2426,0.2611,0.2575,0.2501,0.2047,0.1259,0.0802,0.0299,0.0308,0.0105,0.0113,0.0122,0.0117,0.0124,0.001,0.001,0.001,0.001,0.001,0,0.0911,0.0939,0.1021,0.1202,0.1353,0.1558,0.1747,0.1893,0.2053,0.2184,0.2348,0.233,0.1947,0.1531,0.094,0.0641,0.0382,0.028,0.0378,0.0296,0.031,0.0258,0.0263,0.0231,0.0232,0.0233,0.0234,0.0234,0.0838,0.0886,0.1018,0.111,0.1162,0.1313,0.1448,0.1553,0.1694,0.1863,0.1969,0.1912,0.1883,0.1461,0.1021,0.0604,0.0564,0.0324,0.0245,0.0327,0.0272,0.0276,0.0279,0.0247,0.0246,0.0244,0.0243,0,0.0807,0.0837,0.0937,0.1034,0.1088,0.118,0.1355,0.147,0.1528,0.1704,0.1735,0.1715,0.1589,0.132,0.1062,0.081,0.0566,0.0459,0.0496,0.044,0.0294,0.0294,0.0257,0.0254,0.0251,0.0249,0.0247,0,0.0763,0.083,0.0889,0.0935,0.1063,0.1083,0.1225,0.1263,0.135,0.1483,0.1397,0.1479,0.1243,0.114,0.0912,0.0679,0.0731,0.0452,0.0392,0.0406,0.0398,0.0471,0.0468,0.0504,0.0504,0.0505,0.0505,0,0.0707,0.0783,0.0856,0.088,0.0958,0.1007,0.106,0.1111,0.1189,0.1221,0.1281,0.1196,0.1205,0.1029,0.084,0.0805,0.0683,0.0603,0.0412,0.0405,0.0395,0.0385,0.0506,0.0506,0.0506,0.0506,0.0506,0,0.0654,0.0697,0.0778,0.0857,0.0878,0.0924,0.1013,0.1055,0.1081,0.1079,0.1065,0.1015,0.0994,0.0883,0.0759,0.0767,0.0644,0.0554,0.0548,0.0473,0.0373,0.032,0.0347,0.0443,0.0443,0.0443,0.0443,0,0.0604,0.0667,0.0663,0.0745,0.0787,0.0781,0.083,0.0851,0.085,0.0883,0.0814,0.0832,0.0729,0.0733,0.0681,0.0603,0.0562,0.0574,0.0453,0.0451,0.0359,0.0392,0.0399,0.0349,0.0442,0.0442,0.0442,0,0.0554,0.0572,0.0578,0.0613,0.0623,0.0648,0.0684,0.0716,0.0761,0.0704,0.075,0.0697,0.0659,0.0655,0.0604,0.0575,0.0554,0.0512,0.0509,0.0473,0.0478,0.0399,0.0391,0.0491,0.0492,0.0493,0.0441,0,0.0508,0.0529,0.0539,0.0562,0.0572,0.0591,0.0589,0.0597,0.0574,0.0564,0.0562,0.051,0.0511,0.048,0.0457,0.0478,0.0447,0.0401,0.0371,0.0421,0.0391,0.0392,0.0371,0.037,0.0369,0.0369,0,0,0.0462,0.0485,0.0456,0.0476,0.0488,0.0448,0.0486,0.0479,0.0461,0.047,0.0427,0.0405,0.0366,0.0392,0.0414,0.0382,0.0355,0.0388,0.0404,0.0408,0.0412,0.0386,0.0387,0.0367,0.0367,0.0367,0.0367,0,0.0443,0.0436,0.0453,0.0451,0.0437,0.0432,0.0433,0.0414,0.041,0.0411,0.038,0.0363,0.0331,0.0331,0.0324,0.0368,0.0306,0.0352,0.0435,0.0398,0.0403,0.0407,0.0383,0.0385,0.0365,0.0365,0.0365,0,0.0414,0.0405,0.0409,0.0405,0.0392,0.0413,0.0368,0.0363,0.0384,0.0322,0.0336,0.0297,0.0277,0.028,0.0277,0.0267,0.0274,0.0268,0.0273,0.0313,0.0274,0.0281,0.0287,0.0205,0.0205,0.0204,0,0,0.0401,0.0406,0.0392,0.0401,0.0398,0.0372,0.0364,0.0353,0.0338,0.0332,0.0303,0.0286,0.0271,0.0263,0.0245,0.0244,0.0226,0.0248,0.0256,0.0262,0.0304,0.0268,0.0275,0.0202,0.0202,0.0202,0,0,0.0392,0.0381,0.0372,0.0388,0.0375,0.0352,0.035,0.0333,0.0322,0.0319,0.0277,0.0268,0.0258,0.0244,0.0221,0.0233,0.0205,0.0208,0.0231,0.024,0.0248,0.0302,0.017,0,0,0,0,0,0.0364,0.0382,0.0375,0.0374,0.0364,0.0356,0.0352,0.0332,0.0316,0.0322,0.0304,0.0262,0.0241,0.0219,0.0207,0.0211,0.0172,0.0178,0.0182,0.0212,0.0222,0.023,0,0,0,0,0,0,0.0364,0.0365,0.0374,0.0354,0.035,0.0356,0.0335,0.033,0.0316,0.0314,0.027,0.0261,0.0235,0.0221,0.0211,0.0215,0.0173,0.0174,0.0179,0.0183,0.0215,0.0224,0.0231,0,0,0,0,0,0.0363,0.0364,0.036,0.0352,0.0349,0.0323,0.0335,0.033,0.0322,0.0277,0.0268,0.0307,0.0236,0.0225,0.0215,0.0221,0.0179,0.0176,0.0177,0.0181,0.0184,0.0219,0,0,0,0,0,0,0.0363,0.0358,0.0358,0.0355,0.0351,0.0322,0.0321,0.0331,0.0284,0.0277,0.0312,0.031,0.0236,0.0228,0.022,0.0227,0.0184,0.0181,0.0178,0.018,0.0183,0.0185,0,0,0,0,0,0,0.0357,0.0356,0.0357,0.0356,0.0353,0.0322,0.032,0.0286,0.0283,0.0322,0.032,0.0311,0.0236,0.023,0.0223,0.0171,0.0188,0.0185,0.0182,0.0181,0.0182,0.0184,0,0,0,0,0,0,0.0356,0.0355,0.0357,0.0355,0.0352,0.0319,0.0289,0.0274,0.0304,0.0324,0.0303,0.0303,0.0237,0.0231,0.0226,0.0177,0.0173,0.0188,0.0186,0.0184,0.0183,0,0,0,0,0,0,0,0.0355,0.0372,0.0373,0.0354,0.0351,0.0326,0.0326,0.0325,0.0303,0.0303,0.0303,0.0303,0.0207,0.0203,0.0199,0.0181,0,0,0.0188,0.0187,0,0,0,0,0,0,0,0,0.037,0.0371,0.0373,0.0372,0.0371,0.0326,0.0326,0.0325,0.0303,0.0303,0.0303,0.0303,0.0206,0.0203,0.02,0,0,0,0,0,0,0,0,0,0,0,0,0,0,0,0.0373,0.0372,0,0.0326,0.0326,0.0325,0.0303,0.0303,0.0303,0.0303,0.0205,0.0203,0.02,0,0,0,0,0,0,0,0,0,0,0,0,0,0,0,0,0,0,0,0,0,0,0,0,0,0,0,0,0,0,0,0,0,0,0,0,0,0,0,0,0,0,0,0,0,0,0,0,0,0,0,0,0,0,0,0,0,0,0,0,0,0,0,0,0,0,0,0,0]}]],[[{"header":{"parameterUnit":"kt","parameterCategory":2,"dx":1,"dy":1,"la1":30.253999710083008,"la2":30.299108505249023,"lo1":-89.0895004272461,"lo2":-89.04439544677734,"nx":28,"ny":28,"refTime":"2022-10-31T21:00:00:Z","depth":"4","parameterNumber":2,"parameterNumberName":"U-component_of_CURRENTS"},"data":[0.1191,0.119,0.1253,0.1175,0.118,0.1225,0.1333,0.1535,0.1582,0.1875,0.1958,0.2165,0.2309,0.2471,0.2457,0.2485,0.2426,0.2773,0.2765,0.2793,0.2813,0.2831,0.2743,0,0,0,0,0,0.1266,0.1287,0.1308,0.1361,0.1392,0.146,0.1626,0.1754,0.2023,0.2063,0.2219,0.235,0.2454,0.2559,0.2511,0.27,0.2778,0.2622,0.2629,0.2805,0.2828,0.2735,0,0,0,0,0,0,0.1402,0.1407,0.1479,0.1543,0.1594,0.1632,0.1739,0.1857,0.198,0.232,0.2362,0.2599,0.2821,0.2814,0.2853,0.2854,0.2798,0.2664,0.2692,0.2715,0.2617,0.2418,0.2355,0,0,0,0,0,0.1536,0.1618,0.1636,0.1712,0.1787,0.1841,0.1964,0.2022,0.2252,0.2455,0.2593,0.2686,0.2829,0.2938,0.297,0.2974,0.3117,0.303,0.3041,0.2974,0.2848,0.2826,0.2823,0.2912,0.2915,0.2917,0.2918,0,0.1705,0.1715,0.1835,0.186,0.191,0.2008,0.206,0.2255,0.2337,0.2614,0.2653,0.2898,0.301,0.3046,0.318,0.3203,0.3148,0.309,0.3019,0.2882,0.2857,0.2848,0.2838,0.2936,0.2935,0.2933,0.2932,0,0.1778,0.1853,0.1876,0.1977,0.2021,0.2067,0.2224,0.2287,0.2469,0.2604,0.2684,0.2892,0.3065,0.317,0.334,0.3226,0.3253,0.3181,0.327,0.3255,0.288,0.2863,0.2966,0.2959,0.2954,0.2949,0.2945,0,0.1877,0.1897,0.2001,0.2003,0.2053,0.2135,0.223,0.2318,0.2472,0.2568,0.2728,0.2808,0.3018,0.3133,0.3168,0.3165,0.3336,0.3058,0.3041,0.3179,0.3161,0.3121,0.3094,0.3352,0.3352,0.3352,0.3352,0,0.1923,0.1978,0.2006,0.2022,0.2079,0.2143,0.2199,0.2328,0.2397,0.258,0.2673,0.2817,0.2921,0.3028,0.311,0.3086,0.3273,0.3247,0.3035,0.3015,0.3109,0.3082,0.3351,0.3351,0.3351,0.3351,0.3351,0,0.1971,0.1991,0.2022,0.2076,0.2093,0.2128,0.2236,0.2277,0.2414,0.2489,0.2603,0.266,0.2802,0.2774,0.2958,0.2918,0.2948,0.2976,0.298,0.2722,0.2633,0.2693,0.2938,0.2935,0.2932,0.293,0.2927,0,0.1972,0.2006,0.2046,0.2075,0.2082,0.214,0.2177,0.2246,0.2325,0.2415,0.2472,0.2549,0.2531,0.2588,0.2683,0.2761,0.2824,0.2739,0.2808,0.2807,0.2584,0.2766,0.2855,0.289,0.2895,0.2899,0.2901,0,0.1972,0.2033,0.2045,0.2068,0.2108,0.2108,0.2166,0.2214,0.2289,0.2332,0.242,0.2447,0.2501,0.2481,0.2471,0.2564,0.2755,0.2557,0.2559,0.2541,0.2957,0.2742,0.2743,0.2828,0.2834,0.2838,0.2875,0,0.1995,0.2029,0.2039,0.208,0.209,0.2098,0.2122,0.2165,0.2223,0.225,0.2325,0.2249,0.2268,0.234,0.225,0.2439,0.2387,0.239,0.2289,0.2459,0.2444,0.2465,0.2164,0.2161,0.2158,0.2155,0,0,0.1983,0.2017,0.2041,0.2059,0.2071,0.2094,0.2105,0.2112,0.2072,0.2102,0.2095,0.21,0.2058,0.2078,0.2151,0.2111,0.2132,0.211,0.2368,0.2392,0.2414,0.241,0.2434,0.215,0.2149,0.2148,0.2147,0,0.1978,0.2027,0.2048,0.205,0.2076,0.206,0.2089,0.2088,0.2114,0.2064,0.2041,0.206,0.1969,0.1967,0.1945,0.205,0.2057,0.2136,0.222,0.2339,0.2367,0.2392,0.2394,0.2417,0.214,0.214,0.214,0,0.1977,0.1999,0.2014,0.2029,0.203,0.2027,0.2032,0.2047,0.2063,0.1916,0.1917,0.189,0.1805,0.1805,0.1811,0.1756,0.1931,0.1859,0.1875,0.1846,0.1962,0.1995,0.2024,0.1646,0.1645,0.1643,0,0,0.1974,0.2003,0.2001,0.2025,0.2032,0.2027,0.2026,0.2033,0.1961,0.1941,0.1883,0.1837,0.1799,0.1759,0.1704,0.1664,0.1647,0.1802,0.1825,0.1845,0.1828,0.1947,0.1979,0.1638,0.1638,0.1638,0,0,0.1953,0.1975,0.2005,0.2029,0.202,0.1972,0.1981,0.1998,0.192,0.1935,0.1826,0.1791,0.1786,0.1709,0.1645,0.178,0.1684,0.1689,0.1818,0.1845,0.1868,0.1863,0.1632,0,0,0,0,0,0.1957,0.1972,0.2001,0.2007,0.2002,0.1965,0.1957,0.1959,0.2009,0.2007,0.1897,0.1897,0.1683,0.1619,0.1587,0.1756,0.1573,0.1585,0.1596,0.1755,0.1786,0.1811,0,0,0,0,0,0,0.1959,0.1966,0.1999,0.196,0.1959,0.1964,0.1972,0.1969,0.2008,0.2013,0.191,0.189,0.1795,0.1633,0.1605,0.1771,0.1642,0.1578,0.1588,0.1596,0.1766,0.1791,0.1812,0,0,0,0,0,0.196,0.1966,0.1978,0.1957,0.1956,0.1956,0.1973,0.1972,0.2007,0.1877,0.1864,0.2024,0.1795,0.1767,0.1616,0.1789,0.1661,0.1651,0.1584,0.1592,0.1599,0.1778,0,0,0,0,0,0,0.1961,0.1932,0.1975,0.1973,0.1987,0.1956,0.1957,0.1974,0.1868,0.1858,0.1976,0.198,0.1793,0.1772,0.175,0.1806,0.1677,0.1667,0.166,0.159,0.1596,0.1601,0,0,0,0,0,0,0.1929,0.193,0.1973,0.2011,0.2012,0.1956,0.1957,0.1839,0.1863,0.1968,0.1971,0.1979,0.1806,0.1775,0.1758,0.1573,0.169,0.1679,0.1672,0.1668,0.1595,0.16,0,0,0,0,0,0,0.1928,0.1928,0.2011,0.2011,0.2012,0.1972,0.1844,0.1823,0.1957,0.1969,0.1965,0.1968,0.1808,0.1791,0.1764,0.1586,0.1577,0.1689,0.1682,0.1677,0.1674,0,0,0,0,0,0,0,0.1927,0.1944,0.2005,0.2012,0.2012,0.1949,0.1947,0.1945,0.1958,0.1961,0.1964,0.1967,0.1748,0.1737,0.1726,0.1597,0,0,0.169,0.1685,0,0,0,0,0,0,0,0,0.1942,0.1943,0.2005,0.2005,0.2005,0.1949,0.1947,0.1945,0.1959,0.1961,0.1963,0.1965,0.1745,0.1736,0.1727,0,0,0,0,0,0,0,0,0,0,0,0,0,0,0,0.2005,0.2005,0,0.1948,0.1947,0.1946,0.1959,0.1961,0.1963,0.1965,0.1743,0.1735,0.1728,0,0,0,0,0,0,0,0,0,0,0,0,0,0,0,0,0,0,0,0,0,0,0,0,0,0,0,0,0,0,0,0,0,0,0,0,0,0,0,0,0,0,0,0,0,0,0,0,0,0,0,0,0,0,0,0,0,0,0,0,0,0,0,0,0,0,0,0,0]}],[{"header":{"parameterUnit":"kt","parameterCategory":2,"dx":1,"dy":1,"la1":30.253999710083008,"la2":30.299108505249023,"lo1":-89.0895004272461,"lo2":-89.04439544677734,"nx":28,"ny":28,"refTime":"2022-10-31T21:00:00:Z","depth":"4","parameterNumber":3,"parameterNumberName":"V-component_of_CURRENTS"},"data":[0.0733,0.0839,0.0876,0.1065,0.1172,0.1356,0.1443,0.1483,0.1458,0.1452,0.1241,0.1157,0.0765,0.0977,0.0384,0.0306,0.0208,-0.0198,-0.0204,-0.0329,-0.0323,-0.0318,-0.0174,0,0,0,0,0,0.0705,0.0771,0.0878,0.1031,0.1174,0.1267,0.1402,0.1452,0.1505,0.1474,0.1442,0.1223,0.0832,0.065,0.0392,0.0295,-0.0031,-0.0017,-0.0116,-0.0325,-0.0319,-0.0181,0,0,0,0,0,0,0.0667,0.0727,0.0829,0.0953,0.1103,0.1241,0.1307,0.1379,0.1442,0.1431,0.1395,0.1145,0.1002,0.0606,0.0328,0.0068,0.0025,-0.0044,-0.0053,-0.005,0.0098,0.018,0.0065,0,0,0,0,0,0.0637,0.0684,0.0754,0.0899,0.1018,0.115,0.1272,0.1325,0.139,0.1395,0.1324,0.1123,0.0886,0.0577,0.0269,0.0009,-0.0146,-0.0254,-0.0252,-0.017,-0.0136,-0.0159,-0.0141,-0.0294,-0.0294,-0.0293,-0.0293,0,0.061,0.0649,0.0776,0.0847,0.0899,0.1013,0.1102,0.1168,0.1234,0.1231,0.1252,0.1086,0.098,0.0565,0.0319,-0.0058,-0.0099,-0.0237,-0.0149,-0.0123,-0.0152,-0.0135,-0.0119,-0.0288,-0.0288,-0.0288,-0.0289,0,0.0607,0.0642,0.0722,0.0808,0.085,0.092,0.1041,0.1103,0.1111,0.1165,0.1167,0.1053,0.086,0.0623,0.035,0.0208,-0.0019,-0.0111,0.001,-0.0024,-0.0118,-0.0104,-0.0279,-0.0281,-0.0283,-0.0284,-0.0285,0,0.0602,0.0649,0.0716,0.0748,0.0839,0.0856,0.0943,0.0963,0.099,0.1043,0.096,0.0945,0.0756,0.06,0.0429,0.0203,0.0191,0.0066,0.002,0.0144,0.0155,0.0132,0.0144,0.0048,0.005,0.0051,0.0053,0,0.058,0.0642,0.0692,0.0712,0.0768,0.0806,0.0843,0.0863,0.0906,0.0888,0.0898,0.08,0.0768,0.0605,0.0443,0.0464,0.0214,0.0218,0.0077,0.0074,0.0146,0.0155,0.0055,0.0055,0.0056,0.0056,0.0057,0,0.0563,0.0596,0.0652,0.0706,0.0722,0.0755,0.0802,0.0826,0.0822,0.0821,0.0789,0.0756,0.0698,0.0659,0.0487,0.0547,0.0429,0.0343,0.0332,0.0331,0.0301,0.0261,0.0188,0.019,0.0192,0.0194,0.0196,0,0.0537,0.0583,0.0586,0.064,0.0671,0.0673,0.0702,0.0715,0.0715,0.072,0.0673,0.0689,0.066,0.0664,0.0595,0.0535,0.0443,0.0536,0.0338,0.0332,0.0332,0.0264,0.045,0.0224,0.0221,0.0218,0.0216,0,0.0507,0.0534,0.054,0.0567,0.0579,0.0597,0.062,0.0641,0.0666,0.064,0.0651,0.0657,0.0635,0.0647,0.0633,0.0573,0.0478,0.0554,0.055,0.0464,0.03,0.0297,0.0279,0.0458,0.0457,0.0455,0.0236,0,0.0484,0.0505,0.0516,0.0538,0.0548,0.0565,0.057,0.0581,0.0581,0.0581,0.0591,0.0582,0.0599,0.0591,0.0609,0.0584,0.0553,0.0553,0.055,0.0527,0.0431,0.0416,0.0602,0.0602,0.0602,0.0602,0,0,0.0457,0.0475,0.0469,0.0487,0.0501,0.0487,0.0512,0.0515,0.0527,0.054,0.0533,0.0555,0.0576,0.0594,0.06,0.06,0.0548,0.0624,0.0546,0.054,0.0534,0.0442,0.0427,0.0602,0.0602,0.0602,0.0602,0,0.0444,0.045,0.0465,0.0472,0.0475,0.0475,0.0481,0.0483,0.0494,0.0514,0.0525,0.0533,0.0575,0.0585,0.0598,0.06,0.0574,0.0608,0.0617,0.0548,0.0542,0.0537,0.0446,0.0432,0.0603,0.0603,0.0603,0,0.0428,0.0429,0.0436,0.0443,0.0446,0.0462,0.0451,0.046,0.0476,0.0486,0.0523,0.0532,0.0557,0.0582,0.0598,0.0597,0.0576,0.0621,0.0621,0.064,0.057,0.0563,0.0557,0.0632,0.0632,0.0633,0,0,0.042,0.043,0.0431,0.0441,0.0446,0.0445,0.0448,0.0451,0.0466,0.0477,0.0503,0.0527,0.0552,0.0571,0.0597,0.0616,0.058,0.0625,0.0624,0.0623,0.0641,0.0571,0.0565,0.0633,0.0633,0.0633,0,0,0.0418,0.0423,0.0423,0.0438,0.0439,0.0437,0.0447,0.0447,0.0469,0.0478,0.0507,0.0519,0.0556,0.0567,0.057,0.0601,0.0606,0.0606,0.06,0.0599,0.0597,0.0615,0.0595,0,0,0,0,0,0.0406,0.0419,0.0418,0.042,0.0428,0.0432,0.0432,0.0444,0.0448,0.0458,0.0482,0.0506,0.0569,0.0572,0.0582,0.0594,0.064,0.0638,0.0637,0.0635,0.0633,0.0631,0,0,0,0,0,0,0.0406,0.0409,0.0418,0.0416,0.0418,0.0431,0.0436,0.0439,0.0449,0.0452,0.0497,0.0507,0.0529,0.057,0.0578,0.0589,0.0593,0.0639,0.0638,0.0637,0.0634,0.0632,0.0631,0,0,0,0,0,0.0407,0.0409,0.0425,0.0416,0.0417,0.0429,0.0437,0.044,0.0452,0.0484,0.0493,0.0464,0.0527,0.0538,0.0575,0.0584,0.0587,0.059,0.0638,0.0638,0.0637,0.0633,0,0,0,0,0,0,0.0407,0.0408,0.0425,0.0425,0.0426,0.0429,0.0432,0.044,0.0485,0.0492,0.0452,0.0454,0.0526,0.0534,0.0542,0.0581,0.0583,0.0586,0.0588,0.0638,0.0637,0.0637,0,0,0,0,0,0,0.0407,0.0408,0.0425,0.0438,0.0439,0.043,0.0433,0.0459,0.0488,0.0452,0.0454,0.0453,0.0535,0.0532,0.0538,0.0576,0.058,0.0583,0.0584,0.0586,0.0637,0.0637,0,0,0,0,0,0,0.0407,0.0409,0.0438,0.0439,0.044,0.0442,0.0455,0.0477,0.0456,0.0451,0.0459,0.0461,0.0533,0.0538,0.0535,0.057,0.0575,0.058,0.0582,0.0583,0.0584,0,0,0,0,0,0,0,0.0408,0.0402,0.0424,0.044,0.0441,0.0425,0.0425,0.0425,0.0457,0.0458,0.0459,0.046,0.0564,0.0567,0.057,0.0565,0,0,0.058,0.0581,0,0,0,0,0,0,0,0,0.0401,0.0401,0.0424,0.0424,0.0424,0.0425,0.0425,0.0425,0.0457,0.0458,0.0459,0.046,0.0565,0.0567,0.057,0,0,0,0,0,0,0,0,0,0,0,0,0,0,0,0.0424,0.0424,0,0.0425,0.0425,0.0425,0.0457,0.0458,0.0459,0.0459,0.0565,0.0567,0.057,0,0,0,0,0,0,0,0,0,0,0,0,0,0,0,0,0,0,0,0,0,0,0,0,0,0,0,0,0,0,0,0,0,0,0,0,0,0,0,0,0,0,0,0,0,0,0,0,0,0,0,0,0,0,0,0,0,0,0,0,0,0,0,0,0,0,0,0,0]}]]]